Voltar ao catálogo

STARLINK-36332

AtivoComunicaçõesVLEO
NORAD 67862·PAYLOAD·🇺🇸 United States

Lançado Feb 20, 2026 de Vandenberg Space Force Base

Loading…

Próximas Passagens (próximas 24 horas)

TLE

AtualizadoSource: CelesTrak SupGP

Época: Sep 15, 2026, 03:01 UTC

1 67862C 26034N   26258.12618056 -.00008729  00000+0 -25795-3 0  2582
2 67862  53.1594  42.8784 0001362  93.5315 126.8580 15.34387466    17

Acompanhe STARLINK-36332 em tempo real com AllMySat

Download on the App Store